Regional Weather Roundup
Issued by NWS

Home | Current Version | Previous Version | Text Only | Print | Product List | Glossary Off
Versions: 1 2 3 4 5 6 7 8 9 10 11 12 13 14 15 16 17 18 19 20 21 22 23 24 25 26 27 28 29 30 31 32 33 34 35 36 37 38 39 40 41 42 43 44 45 46 47 48 49 50

000
ASUS45 KCYS 291810
RWRWY

WYOMING REGIONAL WEATHER ROUNDUP
NATIONAL WEATHER SERVICE CHEYENNE WY
1200 PM MDT SAT AUG 29 2015

NOTE:  "FAIR" INDICATES FEW OR NO CLOUDS BELOW 12,000 FEET
WITH NO SIGNIFICANT WEATHER AND/OR OBSTRUCTIONS TO VISIBILITY.

WYZ001-291900-
YELLOWSTONE NATIONAL PARK

CITY           SKY/WX    TMP DP  RH WIND       PRES   REMARKS
LK YELLOWSTONE   N/A     67  39  35 CALM      30.33F
6HR MIN TEMP:  40; 6HR MAX TEMP:  68;

W YELLOWSTONE  NOT AVBL

$$
WYZ002>013-054>058-071-098>099-291900-
NORTHERN WYOMING

CITY           SKY/WX    TMP DP  RH WIND       PRES   REMARKS
JACKSON        MOSUNNY   70  43  37 CALM      30.25S
CODY           FAIR      86  37  17 S5        30.08F
GREYBULL       FAIR      87  40  19 S10       30.02F
6HR MIN TEMP:  53; 6HR MAX TEMP:  88;

WORLAND        FAIR      86  43  22 W5        30.04F
6HR MIN TEMP:  49; 6HR MAX TEMP:  86;

SHERIDAN       FAIR      92  48  22 N5        30.00F
6HR MIN TEMP:  49; 6HR MAX TEMP:  92;

BUFFALO        FAIR      91  34  13 SE10      30.09F
6HR MIN TEMP:  67; 6HR MAX TEMP:  91;

GILLETTE       FAIR      91  39  16 S9        30.06F
6HR MIN TEMP:  56; 6HR MAX TEMP:  92;

HULETT         FAIR      90  43  19 S10G18    30.08F
NEWCASTLE      FAIR      82  37  20 SE8       30.13F

$$
WYZ014>020-022>026-101>103-291900-
CENTRAL WYOMING

CITY           SKY/WX    TMP DP  RH WIND       PRES   REMARKS
BIG PINEY      FAIR      73  36  25 S5        30.31F
6HR MIN TEMP:  39; 6HR MAX TEMP:  74;

PINEDALE       FAIR      77  32  19 S12       30.32F
DUBOIS         FAIR      73  32  21 SW8       30.27F
LANDER         FAIR      79  41  25 VRB3      30.16F
6HR MIN TEMP:  56; 6HR MAX TEMP:  79;

RIVERTON       FAIR      81  40  23 VRB5      30.17F
6HR MIN TEMP:  52; 6HR MAX TEMP:  81;

CASPER         FAIR      87  37  17 S16G25    30.17F
6HR MIN TEMP:  58; 6HR MAX TEMP:  87;

DOUGLAS        FAIR      88  31  13 SE7       30.16F
6HR MIN TEMP:  47; 6HR MAX TEMP:  90;


$$
WYZ021-027>030-104>119-291900-
SOUTHERN WYOMING

CITY           SKY/WX    TMP DP  RH WIND       PRES   REMARKS
EVANSTON       FAIR      82  36  19 SW17G28   30.30F
6HR MIN TEMP:  57; 6HR MAX TEMP:  82;

KEMMERER       FAIR      79  32  18 S6        30.32F
FORT BRIDGER   CLEAR     81  36  19 NE7       30.32F
ROCK SPRINGS   FAIR      81  34  18 VRB3      30.29F
6HR MIN TEMP:  56; 6HR MAX TEMP:  81;

DIXON          FAIR      82  34  17 W7        30.34F
RAWLINS        FAIR      79  35  20 VRB3      30.32F
6HR MIN TEMP:  42; 6HR MAX TEMP:  81;

SARATOGA       FAIR      79  28  15 S3        30.36S
LARAMIE        FAIR      78  32  18 NE8       30.36F
6HR MIN TEMP:  42; 6HR MAX TEMP:  78;

CHEYENNE       FAIR      81  42  25 S16G22    30.29F
6HR MIN TEMP:  51; 6HR MAX TEMP:  82;

TORRINGTON     FAIR      85  47  26 SE7       30.13F
6HR MIN TEMP:  52; 6HR MAX TEMP:  85;

PINE BLUFFS    FAIR      84  34  16 S12G17    30.24F

$$


USA.gov is the U.S. government's official web portal to all federal, state and local government web resources and services.